Location: *
(45.0500°N, 12.0500°E)
Time: 02:41:08
(UTC+00:00)

STARLINK-1246 - Pass Details

Date: 09 April 2020
Orbit: 549 x 550 km, 53.0° (Epoch: 03 June)

Event Time Altitude Azimuth Distance (km) Brightness Sun altitude
Rises 18:56:03 0° 301° (WNW) 2,730 9.2 -11.9°
Reaches altitude 10° 18:58:25 10° 309° (NW) 1,834 7.6 -12.2°
Maximum altitude 19:02:20 39° 19° (NNE) 842 4.6 -12.9°
Enters shadow 19:05:11 17° 82° (E) 1,451 5.3 -13.3°
